TimeCDT,TemperatureF,Dew PointF,Humidity,Sea Level PressureIn,VisibilityMPH,Wind Direction,Wind SpeedMPH,Gust SpeedMPH,PrecipitationIn,Events,Conditions,WindDirDegrees,DateUTC
12:53 AM,66.9,66.0,97,29.98,8.0,Calm,Calm,-,N/A,,Clear,0,2013-08-30 05:53:00
1:53 AM,66.9,66.0,97,29.96,7.0,Calm,Calm,-,N/A,,Clear,0,2013-08-30 06:53:00
2:53 AM,68.0,66.0,93,29.91,7.0,South,4.6,-,N/A,,Scattered Clouds,190,2013-08-30 07:53:00
3:53 AM,66.9,66.0,97,29.90,7.0,South,4.6,-,N/A,,Scattered Clouds,190,2013-08-30 08:53:00
4:53 AM,66.0,64.9,96,29.90,6.0,Calm,Calm,-,N/A,,Partly Cloudy,0,2013-08-30 09:53:00
5:53 AM,66.0,64.9,96,29.88,7.0,South,4.6,-,N/A,,Clear,190,2013-08-30 10:53:00
6:53 AM,66.9,66.0,97,29.86,5.0,South,6.9,-,N/A,,Clear,190,2013-08-30 11:53:00
7:53 AM,73.9,70.0,87,29.85,10.0,SW,11.5,-,N/A,,Clear,230,2013-08-30 12:53:00
8:53 AM,79.0,73.0,82,29.83,10.0,SW,11.5,-,N/A,,Clear,230,2013-08-30 13:53:00
9:53 AM,82.0,73.9,76,29.82,10.0,SW,11.5,-,N/A,,Clear,230,2013-08-30 14:53:00
10:53 AM,87.1,73.9,65,29.81,10.0,West,9.2,-,N/A,,Clear,260,2013-08-30 15:53:00
11:53 AM,90.0,73.9,59,29.79,10.0,West,12.7,-,N/A,,Clear,280,2013-08-30 16:53:00
12:53 PM,87.1,73.9,65,29.79,10.0,WNW,11.5,-,N/A,,Partly Cloudy,300,2013-08-30 17:53:00
1:53 PM,84.0,75.0,74,29.80,10.0,NNW,10.4,-,0.00,Rain,Light Rain,330,2013-08-30 18:53:00
2:03 PM,84.2,75.2,74,29.80,10.0,NW,10.4,-,0.00,,Overcast,320,2013-08-30 19:03:00
2:53 PM,87.1,75.0,67,29.78,10.0,NNW,10.4,-,0.00,,Mostly Cloudy,330,2013-08-30 19:53:00
3:36 PM,84.2,73.4,70,29.80,10.0,NNW,11.5,-,N/A,,Mostly Cloudy,340,2013-08-30 20:36:00
3:53 PM,86.0,75.0,70,29.78,10.0,North,9.2,-,N/A,,Mostly Cloudy,360,2013-08-30 20:53:00
4:44 PM,78.8,69.8,74,29.81,10.0,NE,17.3,-,N/A,,Mostly Cloudy,50,2013-08-30 21:44:00
4:53 PM,77.0,68.0,74,29.80,10.0,NE,16.1,-,N/A,,Mostly Cloudy,50,2013-08-30 21:53:00
5:53 PM,73.0,64.9,76,29.83,10.0,ENE,17.3,23.0,N/A,,Overcast,60,2013-08-30 22:53:00
6:53 PM,70.0,64.9,84,29.85,10.0,NE,16.1,26.5,N/A,,Partly Cloudy,50,2013-08-30 23:53:00
7:53 PM,66.9,63.0,87,29.87,10.0,NE,15.0,-,N/A,,Mostly Cloudy,50,2013-08-31 00:53:00
8:53 PM,63.0,62.1,97,29.89,10.0,NNE,4.6,-,N/A,,Clear,30,2013-08-31 01:53:00
9:53 PM,66.0,63.0,90,29.89,10.0,North,3.5,-,N/A,,Mostly Cloudy,350,2013-08-31 02:53:00
10:53 PM,68.0,63.0,84,29.87,10.0,North,4.6,-,N/A,,Overcast,360,2013-08-31 03:53:00
11:53 PM,68.0,63.0,84,29.87,10.0,NNW,5.8,-,N/A,,Overcast,340,2013-08-31 04:53:00